Time,TemperatureF,DewpointF,PressureIn,WindDirection,WindDirectionDegrees,WindSpeedMPH,WindSpeedGustMPH,Humidity,HourlyPrecipIn,Conditions,Clouds,dailyrainin,SoftwareType,DateUTC
2014-03-12 00:00:00,56.6,45.8,29.78,NNW,337,17.6,-999.0,67,-99.99,,,0.39,Acu-Link.com,2014-03-12 06:00:00,
2014-03-12 00:15:00,56.6,46.2,29.79,NW,315,16.1,-999.0,68,-99.99,,,0.41,Acu-Link.com,2014-03-12 06:15:00,
2014-03-12 00:31:00,55.5,46.3,29.80,NW,315,17.6,-999.0,71,-99.99,,,0.41,Acu-Link.com,2014-03-12 06:31:00,
2014-03-12 00:46:00,54.8,46.3,29.81,NW,315,22.2,-999.0,73,-99.99,,,0.42,Acu-Link.com,2014-03-12 06:46:00,
2014-03-12 01:01:00,53.3,44.9,29.83,NW,315,19.1,-999.0,73,-99.99,,,0.53,Acu-Link.com,2014-03-12 07:01:00,
2014-03-12 01:16:00,53.3,45.2,29.84,NNW,337,20.7,-999.0,74,-99.99,,,0.64,Acu-Link.com,2014-03-12 07:16:00,
2014-03-12 01:31:00,52.2,44.5,29.87,NW,315,21.7,-999.0,75,-99.99,,,1.05,Acu-Link.com,2014-03-12 07:31:00,
2014-03-12 01:46:00,51.9,44.6,29.88,WNW,292,14.5,-999.0,76,-99.99,,,1.06,Acu-Link.com,2014-03-12 07:46:00,
2014-03-12 02:01:00,53.0,45.6,29.89,WNW,292,33.6,-999.0,76,-99.99,,,1.16,Acu-Link.com,2014-03-12 08:01:00,
2014-03-12 02:16:00,50.8,43.9,29.90,West,270,22.7,-999.0,77,-99.99,,,1.43,Acu-Link.com,2014-03-12 08:16:00,
2014-03-12 02:31:00,50.6,44.0,29.90,NNW,337,19.7,-999.0,78,-99.99,,,1.46,Acu-Link.com,2014-03-12 08:31:00,
2014-03-12 02:47:00,50.1,43.5,29.90,WNW,292,18.6,-999.0,78,-99.99,,,1.47,Acu-Link.com,2014-03-12 08:47:00,
2014-03-12 03:02:00,49.9,43.3,29.91,NNW,337,16.1,-999.0,78,-99.99,,,1.47,Acu-Link.com,2014-03-12 09:02:00,
2014-03-12 03:17:00,49.5,43.3,29.91,NNW,337,11.9,-999.0,79,-99.99,,,1.47,Acu-Link.com,2014-03-12 09:17:00,
2014-03-12 03:32:00,49.4,43.2,29.93,NW,315,18.1,-999.0,79,-99.99,,,1.48,Acu-Link.com,2014-03-12 09:32:00,
2014-03-12 03:47:00,49.2,43.0,29.93,NNW,337,19.7,-999.0,79,-99.99,,,1.62,Acu-Link.com,2014-03-12 09:47:00,
2014-03-12 04:02:00,48.8,42.9,29.94,West,270,20.7,-999.0,80,-99.99,,,1.96,Acu-Link.com,2014-03-12 10:02:00,
2014-03-12 04:17:00,48.5,42.9,29.95,NW,315,33.0,-999.0,81,-99.99,,,1.98,Acu-Link.com,2014-03-12 10:17:00,
2014-03-12 04:32:00,48.5,42.9,29.97,NNW,337,17.6,-999.0,81,-99.99,,,2.37,Acu-Link.com,2014-03-12 10:32:00,
2014-03-12 04:47:00,47.9,42.7,29.98,NNW,337,13.5,-999.0,82,-99.99,,,2.37,Acu-Link.com,2014-03-12 10:47:00,
2014-03-12 05:03:00,48.1,42.5,29.99,NW,315,20.7,-999.0,81,-99.99,,,2.54,Acu-Link.com,2014-03-12 11:03:00,
2014-03-12 05:18:00,47.9,42.4,30.00,NNW,337,18.1,-999.0,81,-99.99,,,2.54,Acu-Link.com,2014-03-12 11:18:00,
2014-03-12 05:33:00,47.0,42.4,30.00,North,0,13.5,-999.0,84,-99.99,,,2.58,Acu-Link.com,2014-03-12 11:33:00,
2014-03-12 05:48:00,47.6,42.4,30.01,NNW,337,17.6,-999.0,82,-99.99,,,2.60,Acu-Link.com,2014-03-12 11:48:00,
2014-03-12 06:03:00,47.2,42.0,30.02,NNW,337,20.7,-999.0,82,-99.99,,,2.67,Acu-Link.com,2014-03-12 12:03:00,
2014-03-12 06:18:00,46.7,41.2,30.04,North,0,17.1,-999.0,81,-99.99,,,2.87,Acu-Link.com,2014-03-12 12:18:00,
2014-03-12 06:33:00,46.1,40.6,30.06,North,0,18.1,-999.0,81,-99.99,,,2.90,Acu-Link.com,2014-03-12 12:33:00,
2014-03-12 06:48:00,45.4,39.9,30.07,NNW,337,10.9,-999.0,81,-99.99,,,2.90,Acu-Link.com,2014-03-12 12:48:00,
2014-03-12 07:04:00,45.8,40.3,30.09,NW,315,11.4,-999.0,81,-99.99,,,2.90,Acu-Link.com,2014-03-12 13:04:00,
2014-03-12 07:19:00,45.8,39.7,30.11,NW,315,15.5,-999.0,79,-99.99,,,2.92,Acu-Link.com,2014-03-12 13:19:00,
2014-03-12 07:34:00,46.1,39.6,30.12,NNW,337,16.6,-999.0,78,-99.99,,,2.92,Acu-Link.com,2014-03-12 13:34:00,
2014-03-12 07:49:00,46.5,39.0,30.14,WNW,292,20.2,-999.0,75,-99.99,,,2.92,Acu-Link.com,2014-03-12 13:49:00,
2014-03-12 08:04:00,47.0,39.2,30.15,NNW,337,10.9,-999.0,74,-99.99,,,2.97,Acu-Link.com,2014-03-12 14:04:00,
2014-03-12 08:19:00,47.7,38.8,30.17,NW,315,15.5,-999.0,71,-99.99,,,2.98,Acu-Link.com,2014-03-12 14:19:00,
2014-03-12 08:35:00,48.3,39.3,30.18,NNW,337,13.0,-999.0,71,-99.99,,,2.98,Acu-Link.com,2014-03-12 14:35:00,
2014-03-12 08:50:00,49.4,39.3,30.19,WNW,292,19.7,-999.0,68,-99.99,,,2.98,Acu-Link.com,2014-03-12 14:50:00,
2014-03-12 09:05:00,49.5,38.6,30.20,North,0,16.1,-999.0,66,-99.99,,,2.99,Acu-Link.com,2014-03-12 15:05:00,
2014-03-12 09:20:00,49.9,37.4,30.21,NNE,22,18.1,-999.0,62,-99.99,,,3.01,Acu-Link.com,2014-03-12 15:20:00,
2014-03-12 09:35:00,50.1,38.0,30.21,WNW,292,19.1,-999.0,63,-99.99,,,3.01,Acu-Link.com,2014-03-12 15:35:00,
2014-03-12 09:50:00,51.2,37.8,30.22,NNW,337,19.7,-999.0,60,-99.99,,,3.03,Acu-Link.com,2014-03-12 15:50:00,
2014-03-12 10:05:00,52.1,37.8,30.22,NNE,22,16.6,-999.0,58,-99.99,,,3.03,Acu-Link.com,2014-03-12 16:05:00,
2014-03-12 10:20:00,53.7,38.4,30.23,NNE,22,22.7,-999.0,56,-99.99,,,3.03,Acu-Link.com,2014-03-12 16:20:00,
2014-03-12 10:35:00,53.3,36.6,30.23,NNW,337,19.7,-999.0,53,-99.99,,,3.06,Acu-Link.com,2014-03-12 16:35:00,
2014-03-12 10:51:00,54.6,36.8,30.24,NNE,22,17.6,-999.0,51,-99.99,,,3.06,Acu-Link.com,2014-03-12 16:51:00,
2014-03-12 11:06:00,56.2,37.8,30.24,NNW,337,13.5,-999.0,50,-99.99,,,3.06,Acu-Link.com,2014-03-12 17:06:00,
2014-03-12 11:21:00,56.4,37.5,30.23,NNW,337,15.5,-999.0,49,-99.99,,,3.06,Acu-Link.com,2014-03-12 17:21:00,
2014-03-12 11:36:00,56.6,36.1,30.24,NNW,337,15.0,-999.0,46,-99.99,,,3.09,Acu-Link.com,2014-03-12 17:36:00,
2014-03-12 11:51:00,58.5,37.2,30.24,NNW,337,24.3,-999.0,45,-99.99,,,3.11,Acu-Link.com,2014-03-12 17:51:00,
2014-03-12 12:06:00,58.0,35.6,30.24,NNE,22,22.2,-999.0,43,-99.99,,,3.11,Acu-Link.com,2014-03-12 18:06:00,
2014-03-12 12:21:00,58.0,35.0,30.24,NNE,22,18.1,-999.0,42,-99.99,,,3.16,Acu-Link.com,2014-03-12 18:21:00,
2014-03-12 12:37:00,58.4,35.4,30.23,NNW,337,20.7,-999.0,42,-99.99,,,3.21,Acu-Link.com,2014-03-12 18:37:00,
2014-03-12 12:52:00,58.7,35.7,30.23,NNW,337,19.1,-999.0,42,-99.99,,,3.21,Acu-Link.com,2014-03-12 18:52:00,
2014-03-12 13:07:00,59.4,35.1,30.22,NW,315,15.0,-999.0,40,-99.99,,,3.21,Acu-Link.com,2014-03-12 19:07:00,
2014-03-12 13:22:00,60.7,36.2,30.21,NNW,337,20.2,-999.0,40,-99.99,,,3.21,Acu-Link.com,2014-03-12 19:22:00,
2014-03-12 13:37:00,60.5,35.4,30.21,NW,315,16.1,-999.0,39,-99.99,,,3.21,Acu-Link.com,2014-03-12 19:37:00,
2014-03-12 13:52:00,60.3,34.6,30.21,NNW,337,18.6,-999.0,38,-99.99,,,3.23,Acu-Link.com,2014-03-12 19:52:00,
2014-03-12 14:07:00,61.6,37.0,30.21,NNW,337,14.0,-999.0,40,-99.99,,,3.25,Acu-Link.com,2014-03-12 20:07:00,
2014-03-12 14:23:00,62.0,36.8,30.21,North,0,16.1,-999.0,39,-99.99,,,3.25,Acu-Link.com,2014-03-12 20:23:00,
2014-03-12 14:38:00,62.0,36.1,30.20,NNE,22,14.5,-999.0,38,-99.99,,,3.25,Acu-Link.com,2014-03-12 20:38:00,
2014-03-12 14:53:00,62.7,36.7,30.20,North,0,14.0,-999.0,38,-99.99,,,3.25,Acu-Link.com,2014-03-12 20:53:00,
2014-03-12 15:08:00,62.0,36.8,30.20,NNW,337,8.3,-999.0,39,-99.99,,,3.25,Acu-Link.com,2014-03-12 21:08:00,
2014-03-12 15:23:00,62.9,36.9,30.19,NW,315,12.5,-999.0,38,-99.99,,,3.25,Acu-Link.com,2014-03-12 21:23:00,
2014-03-12 15:38:00,61.8,35.3,30.19,NW,315,10.9,-999.0,37,-99.99,,,3.25,Acu-Link.com,2014-03-12 21:38:00,
2014-03-12 15:53:00,62.0,35.4,30.19,NW,315,14.5,-999.0,37,-99.99,,,3.25,Acu-Link.com,2014-03-12 21:53:00,
2014-03-12 16:08:00,61.4,34.9,30.18,NNW,337,14.0,-999.0,37,-99.99,,,3.25,Acu-Link.com,2014-03-12 22:08:00,
2014-03-12 16:23:00,61.1,34.6,30.18,NNW,337,16.1,-999.0,37,-99.99,,,3.25,Acu-Link.com,2014-03-12 22:23:00,
2014-03-12 16:39:00,60.7,34.3,30.18,NW,315,13.0,-999.0,37,-99.99,,,3.25,Acu-Link.com,2014-03-12 22:39:00,
2014-03-12 16:54:00,60.3,33.9,30.18,North,0,14.5,-999.0,37,-99.99,,,3.25,Acu-Link.com,2014-03-12 22:54:00,
2014-03-12 17:09:00,60.0,34.3,30.18,NNW,337,11.4,-999.0,38,-99.99,,,3.25,Acu-Link.com,2014-03-12 23:09:00,
2014-03-12 17:24:00,59.4,33.8,30.18,NW,315,14.0,-999.0,38,-99.99,,,3.25,Acu-Link.com,2014-03-12 23:24:00,
2014-03-12 17:39:00,59.1,34.2,30.19,NW,315,13.0,-999.0,39,-99.99,,,3.25,Acu-Link.com,2014-03-12 23:39:00,
2014-03-12 17:54:00,58.2,33.4,30.19,NNW,337,13.0,-999.0,39,-99.99,,,3.25,Acu-Link.com,2014-03-12 23:54:00,
2014-03-12 18:09:00,57.3,33.8,30.19,NNW,337,10.9,-999.0,41,-99.99,,,3.25,Acu-Link.com,2014-03-13 00:09:00,
2014-03-12 18:24:00,55.8,33.6,30.19,NNW,337,9.9,-999.0,43,-99.99,,,3.25,Acu-Link.com,2014-03-13 00:24:00,
2014-03-12 18:40:00,54.4,32.9,30.19,NNW,337,6.8,-999.0,44,-99.99,,,3.25,Acu-Link.com,2014-03-13 00:40:00,
2014-03-12 18:55:00,52.8,33.1,30.20,NNW,337,5.8,-999.0,47,-99.99,,,3.25,Acu-Link.com,2014-03-13 00:55:00,
2014-03-12 19:10:00,51.3,32.8,30.21,NE,45,3.2,-999.0,49,-99.99,,,3.25,Acu-Link.com,2014-03-13 01:10:00,
2014-03-12 19:25:00,50.4,32.5,30.21,NNW,337,2.2,-999.0,50,-99.99,,,3.25,Acu-Link.com,2014-03-13 01:25:00,
2014-03-12 19:40:00,49.9,32.5,30.21,NNW,337,2.7,-999.0,51,-99.99,,,3.25,Acu-Link.com,2014-03-13 01:40:00,
2014-03-12 19:55:00,49.0,32.2,30.22,NNE,22,2.7,-999.0,52,-99.99,,,3.25,Acu-Link.com,2014-03-13 01:55:00,
2014-03-12 20:10:00,48.5,32.6,30.23,NNW,337,2.2,-999.0,54,-99.99,,,3.25,Acu-Link.com,2014-03-13 02:10:00,
2014-03-12 20:25:00,47.2,31.4,30.23,NW,315,0.0,-999.0,54,-99.99,,,3.25,Acu-Link.com,2014-03-13 02:25:00,
2014-03-12 20:40:00,47.2,32.3,30.23,WNW,292,1.7,-999.0,56,-99.99,,,3.25,Acu-Link.com,2014-03-13 02:40:00,
2014-03-12 20:55:00,46.7,32.7,30.24,NW,315,1.7,-999.0,58,-99.99,,,3.25,Acu-Link.com,2014-03-13 02:55:00,
2014-03-12 21:11:00,45.8,32.7,30.24,NW,315,1.1,-999.0,60,-99.99,,,3.25,Acu-Link.com,2014-03-13 03:11:00,
2014-03-12 21:26:00,46.1,33.0,30.25,NW,315,0.0,-999.0,60,-99.99,,,3.25,Acu-Link.com,2014-03-13 03:26:00,
2014-03-12 21:41:00,45.0,32.8,30.25,NNW,337,0.0,-999.0,62,-99.99,,,3.25,Acu-Link.com,2014-03-13 03:41:00,
2014-03-12 21:56:00,45.4,33.2,30.25,North,0,2.2,-999.0,62,-99.99,,,3.25,Acu-Link.com,2014-03-13 03:56:00,
2014-03-12 22:11:00,45.0,33.2,30.25,NE,45,2.2,-999.0,63,-99.99,,,3.25,Acu-Link.com,2014-03-13 04:11:00,
2014-03-12 22:26:00,44.9,33.1,30.25,NNE,22,3.2,-999.0,63,-99.99,,,3.25,Acu-Link.com,2014-03-13 04:26:00,
2014-03-12 22:41:00,45.2,33.0,30.25,NNE,22,4.2,-999.0,62,-99.99,,,3.25,Acu-Link.com,2014-03-13 04:41:00,
2014-03-12 22:56:00,44.3,33.3,30.25,NNW,337,4.2,-999.0,65,-99.99,,,3.25,Acu-Link.com,2014-03-13 04:56:00,
2014-03-12 23:11:00,44.0,33.0,30.25,NNW,337,3.7,-999.0,65,-99.99,,,0.00,Acu-Link.com,2014-03-13 05:11:00,
2014-03-12 23:27:00,43.8,33.2,30.25,NNE,22,2.7,-999.0,66,-99.99,,,0.00,Acu-Link.com,2014-03-13 05:27:00,
2014-03-12 23:42:00,43.2,32.6,30.25,NNE,22,0.0,-999.0,66,-99.99,,,0.00,Acu-Link.com,2014-03-13 05:42:00,
2014-03-12 23:57:00,41.8,31.7,30.25,NNE,22,0.0,-999.0,67,-99.99,,,0.00,Acu-Link.com,2014-03-13 05:57:00,